RH
2 3 13 18 21 24 28 27 19 15 12 10 6 5 8 12 16 18 16 14 10 6 8 4 3 13 44 81 99 100 98 100 100 98 93 51 87 100 97 63 30 12 10
3 2 2 3 7 9 10 10 9 7 6 4 4 6 11 16 19 19 20 18 13 8 9 6 4 8 42 75 99 100 99 100 99 98 97 100 100 100 98 76 51 17 11
4 4 5 4 3 3 4 4 4 3 3 3 3 6 10 19 22 24 21 22 16 8 10 8 4 8 27 52 83 99 99 100 100 99 96 94 76 98 93 88 61 25 11
4 4 5 8 12 14 8 6 4 3 3 3 3 3 7 12 22 25 26 25 20 11 9 9 4 9 31 82 92 100 100 97 100 100 100 93 50 53 84 86 67 42 16
4 4 4 6 8 12 8 5 3 2 3 5 6 6 5 7 11 24 27 27 26 16 8 10 5 6 22 70 91 98 100 100 100 99 98 99 87 70 52 62 61 54 32
4 4 4 5 5 5 5 3 3 3 4 8 16 18 17 14 10 11 22 29 28 22 10 9 7 4 32 76 79 100 100 100 98 100 99 96 94 89 52 62 48 42 35
4 4 5 5 4 3 2 2 3 5 23 48 50 46 42 36 36 32 21 21 31 28 17 8 9 4 8 100 100 100 100 99 100 100 98 99 99 83 67 57 53 41 39
4 4 5 5 3 2 2 3 5 28 55 61 61 60 59 53 47 42 39 36 31 33 24 12 9 6 5 98 86 99 100 100 100 100 100 100 99 100 92 64 68 57 50
4 5 5 4 2 2 2 3 22 58 63 63 62 62 59 55 58 56 50 45 38 37 29 21 8 9 6 46 100 87 93 100 100 99 100 99 100 99 93 76 58 52 55
4 5 5 2 2 2 3 5 48 67 68 68 60 53 54 53 49 55 56 54 49 42 36 27 12 8 8 6 84 94 78 100 100 100 100 100 100 100 85 79 68 74 75
5 5 5 2 2 2 4 22 67 73 73 60 40 43 48 60 61 66 73 62 62 46 43 32 23 7 9 6 57 100 90 100 100 100 100 100 100 98 99 98 74 82 73
5 6 4 2 2 3 5 56 77 82 77 49 51 51 58 76 81 80 84 77 74 58 49 38 29 11 8 8 9 79 90 98 100 100 100 100 100 100 100 93 77 83 75
6 6 4 2 2 4 7 70 83 88 80 59 73 66 73 86 89 81 77 83 71 64 56 45 33 20 9 9 6 46 98 78 99 100 99 99 100 99 100 89 84 83 92
6 6 3 2 2 3 8 75 91 93 83 68 80 82 83 84 87 83 75 77 75 65 60 51 40 30 14 10 7 32 100 94 98 100 99 98 100 99 98 89 88 92 92
5 5 3 2 2 3 10 80 98 93 86 71 88 92 74 72 80 80 77 75 69 67 62 55 47 34 23 10 8 6 29 98 96 100 99 98 99 100 100 92 89 98 96
5 5 2 2 2 3 16 87 98 93 92 90 95 88 85 74 85 85 91 83 70 70 66 57 51 36 29 13 9 8 32 55 95 93 96 96 99 100 100 100 89 89 97
6 5 2 2 2 4 20 89 98 92 89 93 90 89 94 90 78 94 90 91 83 70 74 60 53 40 33 16 10 8 42 100 100 100 89 96 98 99 100 100 100 99 97
6 5 2 2 3 6 21 96 100 95 98 83 79 86 92 96 94 88 83 89 86 70 76 66 56 45 35 21 10 10 58 100 100 100 75 79 98 99 100 100 100 98 100
6 5 2 2 3 6 20 96 100 98 97 71 63 89 98 95 96 96 89 86 88 76 72 69 57 47 36 23 10 10 82 100 100 100 99 94 87 100 100 100 100 100 97
7 4 2 2 3 7 22 98 100 98 100 61 62 95 100 100 97 98 91 89 92 83 75 70 54 47 38 24 11 9 41 100 100 100 99 98 91 100 100 100 100 98 98
6 3 2 2 3 6 17 94 100 100 98 57 70 89 99 100 98 98 97 96 95 81 69 69 54 45 36 27 13 9 23 97 99 100 82 73 70 99 100 100 99 96 100
7 3 2 2 4 5 16 90 99 100 100 49 76 88 100 90 94 98 95 92 88 76 72 67 50 44 35 25 12 9 10 59 100 100 98 67 66 90 100 100 100 99 100
7 2 2 2 4 4 16 85 100 100 100 68 70 89 100 87 84 95 96 88 82 75 73 60 48 41 34 22 12 9 12 85 100 100 98 65 63 82 100 100 100 99 99
6 2 2 2 4 5 15 77 100 99 100 98 72 83 98 100 89 80 81 84 75 69 64 55 46 36 32 20 11 9 27 46 100 99 94 66 96 100 99 100 100 100 98
4 2 2 2 4 5 14 55 100 100 100 100 89 83 93 99 100 95 69 71 69 64 57 50 43 32 28 14 10 13 99 100 87 100 96 79 98 98 99 100 100 99 100
3 3 2 3 4 6 17 42 98 97 98 100 99 74 87 100 100 100 78 63 60 58 54 48 40 33 27 13 9 23 100 100 100 97 99 100 98 99 98 99 98 100 99
Wind_Speed
25 20 22 24 25 28 34 38 42 42 42 40 39 39 38 37 36 38 37 35 37 38 41 39 41 49 45 49 53 51 52 50 51 49 46 42 42 35 40 31 28 27 26
32 26 21 21 26 31 35 40 44 45 46 45 40 39 40 39 40 38 40 37 38 38 41 38 40 50 46 45 50 53 60 57 53 54 51 51 45 42 42 35 31 29 28
41 40 30 25 25 29 34 39 42 43 42 44 41 39 38 40 40 40 41 39 38 40 40 41 41 47 49 50 58 62 64 56 54 56 58 65 58 53 45 39 35 32 30
44 45 44 40 39 41 44 48 47 46 39 38 39 37 35 35 38 43 43 42 39 42 41 44 42 48 49 49 45 61 52 62 58 60 59 55 54 58 56 47 40 35 32
47 48 47 47 46 48 53 54 49 43 40 36 35 36 35 35 36 39 43 45 43 44 44 47 46 51 52 51 59 67 61 63 61 62 62 56 50 53 49 50 45 38 35
48 49 50 51 52 55 57 55 51 44 37 36 36 38 41 40 42 41 42 45 47 46 49 49 50 51 56 52 57 53 57 68 63 67 64 60 59 56 52 46 42 42 40
48 51 52 54 55 56 56 55 48 46 44 44 41 39 41 46 48 47 48 46 49 49 51 51 54 53 58 57 52 54 74 61 68 61 67 60 55 50 48 43 44 42 40
49 51 53 55 55 55 54 50 48 48 49 50 50 51 48 47 47 50 49 49 51 52 54 56 58 57 58 62 65 59 59 69 72 67 73 68 60 50 52 43 43 38 38
48 51 53 56 55 53 52 50 49 49 51 54 54 49 45 44 46 47 50 53 54 55 57 59 60 62 58 66 55 65 72 62 68 70 73 68 58 53 50 43 40 38 35
47 51 54 56 54 53 52 49 49 51 54 47 43 42 41 40 39 43 49 56 56 57 58 62 62 65 61 65 71 70 70 60 70 68 74 70 59 51 49 43 42 37 30
48 52 56 57 54 53 50 49 47 53 45 42 43 41 39 42 46 44 46 57 56 59 60 64 65 68 65 63 72 66 60 73 68 69 72 70 54 56 51 45 43 40 31
48 53 57 57 54 54 50 46 49 46 39 38 38 36 36 40 41 43 42 46 50 58 60 64 67 68 67 66 72 77 68 54 64 53 71 71 61 56 51 47 44 39 34
51 54 58 57 55 55 50 47 49 41 37 34 32 28 30 32 28 29 32 33 40 53 58 64 68 69 69 68 70 76 71 76 58 55 65 74 64 61 53 47 44 40 35
53 56 58 57 54 55 51 49 48 38 38 33 27 25 29 33 31 28 29 31 34 45 56 63 66 70 71 71 72 75 79 71 60 62 56 69 74 60 54 50 46 41 37
54 57 59 59 56 55 51 50 46 35 38 33 32 30 31 34 33 31 28 29 32 38 48 60 66 70 71 70 71 72 80 83 75 66 50 67 73 57 57 53 48 44 39
56 59 60 59 57 55 52 51 43 34 37 34 37 36 30 28 31 29 28 28 28 31 38 55 65 70 72 69 70 69 73 77 75 69 68 68 74 64 61 56 51 47 45
57 60 60 59 58 54 52 51 41 36 37 35 38 35 31 28 28 30 30 30 29 28 34 48 62 69 71 68 70 69 73 69 70 71 67 68 75 71 66 55 48 48 44
58 60 60 59 57 53 50 51 40 36 39 37 39 34 29 26 26 29 27 30 29 31 30 42 59 67 70 68 71 70 76 73 76 71 72 71 64 78 68 62 52 50 46
56 59 57 57 56 51 49 49 39 34 39 38 39 32 27 25 26 28 27 28 29 31 30 39 55 66 69 69 72 70 82 73 69 67 64 66 72 70 69 59 60 55 51
54 57 55 55 54 49 47 47 39 34 37 38 37 31 30 26 20 23 27 27 29 29 30 36 53 63 68 69 72 72 80 86 68 65 61 60 57 73 71 63 65 59 54
52 54 52 52 52 49 46 46 39 34 35 36 36 31 29 28 15 18 23 27 29 29 31 35 51 61 67 70 72 73 75 81 73 67 70 56 49 62 72 57 63 55 53
50 50 51 49 48 46 45 44 41 32 32 33 32 28 26 24 16 15 22 26 29 30 30 36 51 59 66 68 70 71 69 73 73 67 61 59 39 57 71 64 53 57 54
49 47 48 48 45 43 43 42 42 33 29 29 27 25 26 20 14 12 19 25 28 29 30 40 52 58 64 66 67 67 65 76 75 70 63 65 48 47 65 69 69 60 60
47 46 46 45 45 40 39 40 41 35 28 27 25 22 19 23 19 9 14 22 25 27 31 43 52 59 64 65 66 65 63 73 77 78 73 63 53 37 60 70 61 52 60
45 43 45 44 44 40 37 39 38 37 26 24 25 20 17 16 19 16 4 13 20 24 32 43 51 59 63 62 62 61 61 62 75 82 74 57 50 53 53 69 59 58 62
43 41 41 41 41 39 36 36 35 37 29 22 24 20 16 13 12 14 5 7 17 25 33 40 50 58 59 58 58 63 67 57 65 66 61 57 53 52 52 69 61 54 60
Wind_Direction
349 326 300 291 288 287 285 285 284 285 285 282 280 274 271 268 268 268 269 266 260 255 241 237 234 231 235 236 225 203 215 197 204 203 199 202 201 200 198 202 204 202 204
354 347 332 312 295 289 290 291 292 289 286 284 280 273 270 268 267 263 264 263 257 254 240 233 230 225 225 228 226 206 206 208 205 204 202 188 191 201 200 203 203 204 204
349 347 343 330 319 316 310 306 302 297 292 286 278 273 270 266 266 263 260 258 254 250 240 229 226 220 221 225 225 213 209 204 207 210 212 198 200 199 203 203 204 201 204
345 345 342 336 326 320 317 313 308 300 294 290 283 275 269 265 259 260 260 257 251 246 239 227 223 214 214 212 206 225 212 217 208 207 215 218 215 201 195 200 201 202 204
341 341 338 333 326 318 316 314 309 304 299 294 290 284 275 265 256 252 254 255 250 241 239 225 222 215 210 211 217 223 217 213 212 213 209 208 211 209 213 201 198 201 206
337 336 334 330 326 319 315 313 311 307 303 296 290 284 280 274 265 257 250 249 248 238 236 227 219 217 207 207 216 215 202 203 215 214 216 215 208 211 215 214 208 207 206
332 331 330 328 323 318 314 314 313 311 308 302 293 283 275 270 269 263 255 246 244 239 230 228 217 218 210 202 200 208 204 208 206 224 218 216 215 213 213 214 216 216 211
328 327 326 323 320 317 317 315 314 312 308 305 302 297 290 278 268 263 255 247 240 236 229 226 220 214 214 201 212 201 200 205 217 217 211 219 212 212 215 213 216 214 216
324 324 323 321 321 319 320 317 314 310 307 303 298 295 291 283 275 263 256 247 237 230 226 223 221 214 213 206 198 214 219 203 204 210 211 215 212 210 215 213 210 212 213
323 323 322 322 324 321 320 316 312 309 308 305 303 299 293 286 277 265 249 245 237 230 221 221 217 217 210 209 204 216 216 207 210 206 212 217 209 206 212 208 205 207 214
325 324 325 325 325 322 321 316 313 311 309 308 303 301 291 276 268 262 250 243 233 227 220 217 214 217 211 207 203 201 204 205 204 208 210 204 208 205 209 209 206 201 203
325 326 327 327 325 324 322 318 318 316 311 306 306 304 290 283 279 274 264 251 241 227 219 214 214 213 213 204 208 201 204 200 200 205 212 209 208 211 205 206 204 198 199
327 329 329 328 326 325 325 323 324 319 313 304 310 303 290 287 283 275 271 259 244 229 220 213 212 209 214 206 206 205 204 210 201 202 209 210 208 207 204 200 198 192 200
328 329 330 327 328 328 327 327 327 319 316 308 312 300 293 283 277 270 266 259 249 236 221 213 211 208 211 208 204 202 195 200 205 202 209 211 206 212 198 198 195 195 203
327 329 331 328 330 330 329 330 330 320 319 315 315 308 294 276 273 266 258 251 247 237 223 213 210 208 208 209 204 204 204 205 208 206 205 210 208 207 207 199 195 199 202
328 331 332 329 330 333 331 332 331 323 323 319 318 311 301 278 267 265 259 248 242 240 229 216 211 208 207 207 204 203 203 201 202 210 213 214 211 205 207 198 195 209 207
329 331 331 331 331 333 332 332 332 326 327 323 318 308 298 283 269 259 256 249 241 238 233 217 211 207 206 202 203 202 198 196 197 202 212 211 207 200 204 207 205 207 213
328 331 331 331 330 331 332 332 332 328 331 326 323 313 302 284 270 261 259 243 236 231 228 215 211 206 205 199 201 200 196 193 197 203 210 219 218 208 203 204 199 202 206
328 330 330 331 328 331 332 334 334 329 333 330 328 323 314 295 269 257 254 243 233 226 220 212 208 204 202 197 199 199 192 189 192 196 203 213 219 212 202 207 201 206 206
327 329 330 331 328 330 332 336 338 333 332 334 331 324 332 323 279 248 239 234 230 222 217 211 203 201 200 196 198 198 196 197 194 196 201 203 213 211 206 203 206 200 212
328 329 331 332 329 330 332 336 340 335 333 334 335 326 329 326 295 246 226 225 226 218 213 208 199 198 198 196 198 200 200 199 203 200 201 208 217 212 210 205 211 202 211
329 330 331 334 330 332 330 335 341 337 334 334 341 339 338 328 307 249 226 220 219 214 210 203 195 196 196 196 199 199 199 197 201 200 205 207 207 211 208 205 205 200 205
329 331 333 334 332 334 332 335 340 338 331 337 340 343 1 346 322 266 227 215 215 212 208 196 192 193 195 195 198 200 196 193 194 195 202 206 212 226 209 207 197 206 205
329 332 334 335 335 337 334 334 338 341 331 334 336 337 359 5 2 301 237 219 210 209 204 191 189 192 194 195 198 198 194 197 199 202 203 200 207 217 206 204 205 209 199
331 334 335 338 335 338 337 333 337 341 337 331 333 334 338 343 354 349 282 218 205 201 195 188 188 191 193 193 198 193 187 192 199 204 208 200 208 223 202 206 209 207 207
331 335 336 337 336 339 339 334 337 341 339 332 332 332 327 324 345 335 332 177 185 185 189 188 189 189 191 191 196 192 192 194 200 206 191 187 196 201 205 204 209 210 206